Location: Freistadt
(48.5112°N, 14.5013°E)
Time: 10:24:58
(UTC+02:00)

NOAA 16 DEB - Pass Details

Date: 28 May 2024
Orbit: 738 x 810 km, 99.0° (Epoch: 16 June)

Event Time Altitude Azimuth Distance (km) Brightness Sun altitude
Rises 04:19:04 0° 166° (SSE) 3,320 ? -7.0°
Reaches altitude 10° 04:21:24 10° 167° (SSE) 2,390 ? -6.7°
Maximum altitude 04:26:43 82° 255° (WSW) 820 ? -6.1°
Drops below altitude 10° 04:32:00 10° 343° (NNW) 2,380 ? -5.4°
Sets 04:34:20 0° 345° (NNW) 3,305 ? -5.1°
